Location: Prague
(50.0830°N, 14.4670°E)
Time: 05:08:46
(UTC+01:00)

ITUPSAT 1 - Pass Details

Date: 29 November 2021
Orbit: 700 x 713 km, 98.6° (Epoch: 28 January)

Event Time Altitude Azimuth Distance (km) Brightness Sun altitude
Rises 04:41:46 0° 98° (E) 3,099 ? -27.2°
Reaches altitude 10° 04:46:13 10° 59° (ENE) 2,191 ? -26.5°
Maximum altitude 04:46:59 10° 50° (NE) 2,167 ? -26.4°
Drops below altitude 10° 04:47:46 10° 40° (NE) 2,194 ? -26.2°
Sets 04:52:14 0° 1° (N) 3,123 ? -25.5°
